Carlsbad, NM

4:56 AM MST on November 22, 2017 (GMT -0700)
Cavern City

Weather History for KCNM - September, 2012

Change the Weather History Date:

Tuesday, September 4, 2012

  Actual Average Record
Temperature  
Mean Temperature 86 °F -  
Max Temperature 102 °F 90 °F 102 °F (1992)
Min Temperature 69 °F 63 °F 49 °F (1984)
Cooling Degree Days 20    
Growing Degree Days 36 (Base 50)    
Moisture  
Dew Point 49 °F    
Average Humidity 27    
Maximum Humidity 57    
Minimum Humidity 15    
Precipitation  
Precipitation 0.00 in - - ()
Sea Level Pressure  
Sea Level Pressure 29.84 in    
Wind  
Wind Speed 6 mph (West)    
Max Wind Speed 18 mph    
Max Gust Speed 23 mph    
Visibility 6 miles    
Events Thunderstorm    
Averages and records for this station are not official NWS values.
T = Trace of Precipitation, MM = Missing Value Source: NWS Daily Summary

Daily Weather History Graph

Daily Weather History Graph

Search for Another Location

Airport or City:

Trip Planner

Search our weather history database for the weather conditions in past years. The results will help you decide how hot, cold, wet, or windy it might be!

Date:

Astronomy

Sep. 04, 2012 Rise Set
Actual Time 6:34 AM MDT 7:16 PM MDT
Civil Twilight 6:09 AM MDT 7:41 PM MDT
Nautical Twilight 5:40 AM MDT 8:10 PM MDT
Astronomical Twilight 5:10 AM MDT 8:40 PM MDT
Moon 9:30 PM MDT (9/4) 10:24 AM MDT (9/4)
Length of Visible Light 13h 32m
Length of Day
12h 42m
Waning Gibbous, 83% of the Moon is Illuminated
Sep 4
Waning Gibbous
Sep 8
Last Quarter
Sep 15
New
Sep 22
First Quarter
Sep 29
Full

Hourly Weather History & Observations

Time (MDT) Temp. Heat Index Dew Point Humidity Pressure Visibility Wind Dir Wind Speed Gust Speed Precip Events Conditions
12:53 AM 77.0 °F - 52.0 °F 42% 29.77 in 10.0 mi SSW 5.8 mph - N/A   Clear
1:53 AM 73.9 °F - 52.0 °F 46% 29.77 in 10.0 mi Calm Calm - N/A   Clear
2:53 AM 73.0 °F - 53.1 °F 49% 29.76 in 10.0 mi South 4.6 mph - N/A   Clear
3:53 AM 73.0 °F - 53.1 °F 49% 29.76 in 10.0 mi Calm Calm - N/A   Clear
4:53 AM 70.0 °F - 53.1 °F 55% 29.77 in 10.0 mi WNW 3.5 mph - N/A   Clear
5:53 AM 69.1 °F - 53.1 °F 57% 29.78 in 10.0 mi NW 5.8 mph - N/A   Clear
6:53 AM 71.1 °F - 53.1 °F 53% 29.81 in 10.0 mi North 4.6 mph - N/A   Clear
7:53 AM 73.9 °F - 55.0 °F 52% 29.81 in 10.0 mi ENE 3.5 mph - N/A   Clear
8:53 AM 81.0 °F 80.4 °F 53.1 °F 38% 29.82 in 10.0 mi NNE 8.1 mph - N/A   Clear
9:53 AM 86.0 °F 84.5 °F 55.0 °F 35% 29.82 in 10.0 mi NNE 3.5 mph - N/A   Clear
10:53 AM 91.9 °F 89.5 °F 53.1 °F 27% 29.81 in 10.0 mi NW 3.5 mph - N/A   Clear
11:53 AM 97.0 °F - 48.9 °F 19% 29.79 in 10.0 mi NNW 8.1 mph - N/A   Clear
12:28 PM 96.8 °F - 48.2 °F 19% 29.97 in 1.0 mi Calm Calm - N/A   Haze
12:31 PM 96.8 °F - 48.2 °F 19% 29.97 in 5.0 mi Variable 3.5 mph - N/A   Haze
12:53 PM 99.0 °F - 48.9 °F 18% 29.77 in 10.0 mi NW 4.6 mph - N/A   Clear
1:53 PM 100.4 °F - 48.2 °F 17% 29.93 in 0.2 mi North 4.6 mph - N/A   Haze
1:57 PM 100.4 °F - 46.4 °F 16% 29.93 in 1.5 mi West 4.6 mph - N/A   Haze
2:04 PM 98.6 °F - 46.4 °F 17% 29.93 in 10.0 mi Calm Calm - N/A   Clear
2:53 PM 102.0 °F - 46.0 °F 15% 29.72 in 10.0 mi NNE 6.9 mph - N/A   Clear
3:13 PM 100.4 °F - 46.4 °F 16% 29.90 in 0.8 mi South 4.6 mph - N/A   Haze
3:34 PM 100.4 °F - 46.4 °F 16% 29.89 in 2.0 mi South 4.6 mph - N/A   Haze
3:53 PM 100.4 °F - 46.4 °F 16% 29.89 in 10.0 mi WSW 9.2 mph - N/A   Partly Cloudy
4:14 PM 100.4 °F - 48.2 °F 17% 29.88 in 10.0 mi West 16.1 mph 23.0 mph N/A   Clear
4:23 PM 100.4 °F - 48.2 °F 17% 29.88 in 2.5 mi WSW 13.8 mph - N/A Thunderstorm Unknown
4:36 PM 100.4 °F - 48.2 °F 17% 29.88 in 0.8 mi WSW 12.7 mph - N/A Thunderstorm Unknown
4:40 PM 100.4 °F - 48.2 °F 17% 29.88 in 1.5 mi WSW 13.8 mph - N/A   Haze
4:48 PM 100.4 °F - 48.2 °F 17% 29.88 in 0.2 mi SW 13.8 mph - N/A   Haze
4:53 PM 100.0 °F - 48.0 °F 17% 29.69 in 0.2 mi WSW 18.4 mph - N/A   Haze
5:12 PM 96.8 °F - 46.4 °F 18% 29.89 in 0.2 mi WSW 17.3 mph - N/A Thunderstorm Haze
5:27 PM 96.8 °F - 46.4 °F 18% 29.88 in 0.2 mi WSW 15.0 mph - N/A   Haze
5:45 PM 96.8 °F - 44.6 °F 17% 29.88 in 1.0 mi WSW 13.8 mph - N/A   Haze
5:53 PM 97.0 °F - 45.0 °F 17% 29.70 in 1.0 mi WSW 11.5 mph - N/A   Haze
6:01 PM 96.8 °F - 44.6 °F 17% 29.88 in 2.0 mi WSW 11.5 mph - N/A   Haze
6:08 PM 96.8 °F - 44.6 °F 17% 29.87 in 10.0 mi WSW 8.1 mph - N/A   Clear
6:19 PM 96.8 °F - 44.6 °F 17% 29.87 in 0.8 mi SW 8.1 mph - N/A   Haze
6:38 PM 96.8 °F - 44.6 °F 17% 29.87 in 0.2 mi WSW 5.8 mph - N/A   Haze
6:53 PM 95.0 °F - 45.0 °F 18% 29.69 in 0.2 mi WSW 5.8 mph - N/A   Haze
7:07 PM 93.2 °F - 46.4 °F 20% 29.87 in 1.5 mi West 4.6 mph - N/A   Haze
7:14 PM 91.4 °F - 46.4 °F 21% 29.87 in 10.0 mi West 4.6 mph - N/A   Clear
7:53 PM 89.1 °F - 46.9 °F 23% 29.70 in 10.0 mi North 3.5 mph - N/A   Clear
8:53 PM 88.0 °F - 50.0 °F 27% 29.73 in 10.0 mi NNE 6.9 mph - N/A   Scattered Clouds
9:53 PM 81.0 °F - 50.0 °F 34% 29.74 in 10.0 mi WNW 3.5 mph - N/A   Clear
10:53 PM 78.1 °F - 50.0 °F 37% 29.74 in 10.0 mi WSW 6.9 mph - N/A   Clear
11:21 PM 78.8 °F - 50.0 °F 36% 29.93 in 0.8 mi WSW 8.1 mph - N/A   Haze
11:29 PM 78.8 °F - 50.0 °F 36% 29.94 in 0.2 mi WNW 9.2 mph - N/A   Haze
11:42 PM 77.0 °F - 51.8 °F 41% 29.94 in 1.2 mi WNW 5.8 mph - N/A   Haze
11:45 PM 77.0 °F - 51.8 °F 41% 29.94 in 5.0 mi NW 5.8 mph - N/A   Haze
11:53 PM 77.0 °F - 51.1 °F 40% 29.75 in 10.0 mi NW 4.6 mph - N/A   Clear